Tracking 19489 objects as of 23-Jan-2019
HD Live streaming from Space Station
objects crossing your sky now

COSMOS 2242

Track COSMOS 2242 now!
10-day predictions
COSMOS 2242 is classified as:


NORAD ID: 22626
Int'l Code: 1993-024A
Perigee: 598.8 km
Apogee: 624.7 km
Inclination: 82.5 °
Period: 96.8 minutes
Semi major axis: 6982 km
RCS: 9.205 m2 (large)
Launch date: April 16, 1993
Source: Commonwealth of Independent States (former USSR) (CIS)
Launch site: PLESETSK MISSILE AND SPACE COMPLEX (PKMTR)

Cosmos 2242 was a Russian ELINT (Electronic and Signals Intelligence) satellite.
aabbcc
Your satellite tracking list
Your tracking list is empty




NASA's NSSDC Master Catalog

Two Line Element Set (TLE):
1 22626U 93024A   19022.92587538 +.00000136 +00000-0 +12077-4 0  9998
2 22626 082.5204 210.4590 0018538 344.0469 016.0162 14.87869049392799
Source of the keplerian elements: AFSPC